Home > Weather > Paradise > Past weeks

Flag for USA Weather for the Past 2 Weeks in Paradise, California, USA

Now
63 °F

Clear.


Feels Like: 63 °F
Forecast: 56 / 74 °F
Wind: 5 mph from West

Location: Chico Municipal

Current Time: May 2, 2016 at 1:36:25 AM

Latest Report: May 2, 2016 at 12:55 AM


Visibility: 10 mi

Pressure: 29.93 "Hg (28.13 "Hg at 527m altitude)

Humidity: 59%

Dew Point: 48 °F

Location of ParadiseLocation

Historic Weather in Paradise — Graph

°F

Paradise Temperature Yesterday

Maximum temperature yesterday: 82 °F (at 3:52 PM)
Minimum temperature yesterday: 54 °F (at 5:35 AM)
Average temperature yesterday: 68 °F

High & Low Weather Summary for the Past Weeks

 TemperatureHumidityPressure
High86 °F (Apr 18, 4:55 PM)100% (Apr 22, 4:55 AM)30.22 "Hg (Apr 22, 4:55 AM)
Low45 °F (Apr 25, 6:45 AM)12% (Apr 20, 3:50 PM)29.76 "Hg (Apr 22, 5:35 AM)
Average64 °F47%29.95 "Hg
* Reported Apr 17 12:15 AM — May 2 12:15 AM, Paradise, Weather by CustomWeather, © 2016

Note: Actual official high and low records may vary slightly from our data, if they occured in-between our weather recording intervals... More about our weather records

Advertising

Paradise Weather History for the Previous 24 Hours

Scroll right to see more
 ConditionsComfort  
Time TempWeatherWind HumidityBarometerVisibility
12:15 AM
Mon, May 2
68 °FPassing clouds.No wind43%29.92 "Hg10 mi
11:35 PM
Sun, May 1
72 °FPassing clouds.5 mph33%29.91 "Hg10 mi
11:15 PM72 °FPassing clouds.3 mph33%29.91 "Hg10 mi
10:15 PM73 °FPassing clouds.9 mph31%29.90 "Hg10 mi
9:55 PM72 °FPartly cloudy.8 mph41%29.90 "Hg10 mi
9:15 PM73 °FMostly cloudy.12 mph36%29.91 "Hg10 mi
8:35 PM77 °FOvercast.12 mph26%29.86 "Hg10 mi
7:55 PM81 °FPassing clouds.No wind26%29.84 "Hg10 mi
7:15 PM81 °FSunny.No wind26%29.83 "Hg10 mi
6:55 PM81 °FSunny.No wind24%29.82 "Hg10 mi
6:15 PM82 °FSunny.8 mph23%29.82 "Hg10 mi
5:55 PM82 °FSunny.8 mph21%29.82 "Hg10 mi
3:52 PM82 °FScattered clouds.7 mph20%29.83 "Hg80 mi
1:47 PM81 °FScattered clouds.9 mph23%29.85 "Hg80 mi
12:45 PM79 °FPassing clouds.12 mph23%29.86 "Hg80 mi
11:45 AM77 °FPassing clouds.6 mph24%29.88 "Hg80 mi
10:50 AM75 °FPassing clouds.12 mph29%29.88 "Hg80 mi
9:59 AM72 °FSunny.9 mph36%29.89 "Hg80 mi
8:45 AM64 °FSunny.7 mph43%29.89 "Hg40 mi
7:45 AM59 °FSunny.7 mph48%29.89 "Hg40 mi
6:45 AM55 °FClear.6 mph55%29.88 "Hg40 mi
5:35 AM54 °FClear.No wind58%29.86 "Hg10 mi
5:15 AM55 °FClear.No wind55%29.86 "Hg10 mi
4:55 AM57 °FClear.No wind48%29.87 "Hg10 mi
4:35 AM57 °FClear.No wind48%29.87 "Hg10 mi
4:15 AM57 °FClear.No wind48%29.87 "Hg10 mi
3:55 AM57 °FClear.No wind48%29.88 "Hg10 mi
3:15 AM59 °FClear.3 mph45%29.88 "Hg10 mi
2:55 AM59 °FClear.5 mph45%29.88 "Hg10 mi
2:15 AM57 °FClear.No wind55%29.88 "Hg10 mi
1:55 AM59 °FClear.No wind48%29.89 "Hg10 mi
1:15 AM64 °FClear.8 mph37%29.90 "Hg10 mi
Weather by CustomWeather, © 2016

See weather overviewHow to use our weather pages